DW9439 Weather Reports


Display with metric or nautical units.
time (UTC)temp
F
wind
direction
speed
MPH
gust
MPH
rain 1hr
in
rain 24hr
in
rain mn
in
humidity
%
barometer
mb
20260505075531 52 65 8.0 18.0 0.00 0.00 0.00 58 1013.9
20260505074355 52 74 8.0 18.0 0.00 0.00 0.00 57 1013.9
20260505074054 52 71 8.0 14.0 0.00 0.00 0.00 57 1014.0
20260505073746 52 68 8.0 14.0 0.00 0.00 0.00 57 1014.2
20260505073438 52 67 9.0 14.0 0.00 0.00 0.00 56 1014.1
20260505073132 52 68 8.0 14.0 0.00 0.00 0.00 56 1014.2
20260505072828 52 72 8.0 15.0 0.00 0.00 0.00 56 1014.5
20260505072528 52 66 8.0 15.0 0.00 0.00 0.00 56 1014.6
20260505072225 52 67 7.0 15.0 0.00 0.00 0.00 56 1014.7
20260505071924 52 65 8.0 15.0 0.00 0.00 0.00 56 1014.7
20260505071614 52 63 8.0 22.0 0.00 0.00 0.00 56 1014.8
20260505071312 53 62 9.0 22.0 0.00 0.00 0.00 55 1014.8
20260505071000 53 57 9.0 22.0 0.00 0.00 0.00 56 1014.6
20260505070653 53 65 10.0 22.0 0.00 0.00 0.00 56 1014.7
20260505065039 53 59 13.0 22.0 0.00 0.00 0.00 55 1014.1
20260505064329 54 54 12.0 22.0 0.00 0.00 0.00 54 1013.9
20260505064018 54 69 12.0 22.0 0.00 0.00 0.00 54 1013.5
20260505063705 54 75 12.0 22.0 0.00 0.00 0.00 54 1013.5
20260505063405 55 57 10.0 21.0 0.00 0.00 0.00 54 1013.5
20260505063052 55 61 10.0 20.0 0.00 0.00 0.00 54 1013.4
20260505062316 55 69 10.0 19.0 0.00 0.00 0.00 53 1013.3
20260505062010 55 69 10.0 19.0 0.00 0.00 0.00 53 1013.2
20260505061708 55 74 9.0 19.0 0.00 0.00 0.00 53 1013.2
20260505061411 55 72 9.0 19.0 0.00 0.00 0.00 53 1013.1
20260505061103 55 69 8.0 19.0 0.00 0.00 0.00 53 1013.1
20260505060751 55 68 9.0 19.0 0.00 0.00 0.00 53 1013.2
20260505060455 55 63 8.0 19.0 0.00 0.00 0.00 53 1013.3
20260505055727 56 63 8.0 14.0 0.00 0.00 0.00 53 1013.3
20260505055431 56 63 8.0 14.0 0.00 0.00 0.00 52 1013.1
20260505055134 56 62 8.0 14.0 0.00 0.00 0.00 52 1013.1
20260505054836 56 63 8.0 14.0 0.00 0.00 0.00 52 1013.1
20260505054537 56 63 8.0 14.0 0.00 0.00 0.00 52 1013.1
20260505054225 56 62 8.0 17.0 0.00 0.00 0.00 52 1012.9
20260505053459 56 67 8.0 17.0 0.00 0.00 0.00 51 1012.8
20260505052727 56 80 8.0 17.0 0.00 0.00 0.00 51 1012.8
20260505052430 56 76 8.0 17.0 0.00 0.00 0.00 51 1012.7
20260505052124 57 73 9.0 18.0 0.00 0.00 0.00 51 1012.8
20260505051410 57 88 8.0 18.0 0.00 0.00 0.00 51 1012.6
20260505051112 57 67 8.0 18.0 0.00 0.00 0.00 51 1012.5
20260505050352 57 74 9.0 18.0 0.00 0.00 0.00 51 1012.3
20260505041614 59 72 11.0 25.0 0.00 0.00 0.00 53 1011.2
20260505041306 60 55 12.0 25.0 0.00 0.00 0.00 53 1011.1
20260505041007 60 87 11.0 19.0 0.00 0.00 0.00 53 1011.0
20260505040703 60 80 11.0 19.0 0.00 0.00 0.00 53 1011.0
20260505040400 60 65 10.0 19.0 0.00 0.00 0.00 53 1011.0
20260505040048 61 74 10.0 19.0 0.00 0.00 0.00 53 1010.9
20260505035748 61 73 10.0 19.0 0.00 0.00 0.00 52 1010.9
20260505035444 61 67 10.0 19.0 0.00 0.00 0.00 52 1011.0
20260505035146 61 86 11.0 19.0 0.00 0.00 0.00 51 1011.1
20260505034430 62 91 11.0 21.0 0.00 0.00 0.00 50 1011.1
20260505034131 62 88 11.0 21.0 0.00 0.00 0.00 49 1010.9
20260505033819 63 90 12.0 21.0 0.00 0.00 0.00 48 1010.7
20260505033507 63 82 12.0 21.0 0.00 0.00 0.00 48 1010.5
20260505033203 64 90 11.0 21.0 0.00 0.00 0.00 47 1010.4
20260505032858 64 88 12.0 21.0 0.00 0.00 0.00 46 1010.5
20260505032600 65 85 12.0 21.0 0.00 0.00 0.00 45 1010.4
20260505031840 66 81 11.0 20.0 0.00 0.00 0.00 43 1010.2
20260505031534 66 71 11.0 20.0 0.00 0.00 0.00 43 1010.1
20260505031221 67 73 10.0 20.0 0.00 0.00 0.00 41 1010.1
20260505030907 67 81 11.0 19.0 0.00 0.00 0.00 40 1009.9
20260505030600 68 79 11.0 17.0 0.00 0.00 0.00 38 1009.7
20260505030252 69 79 10.0 17.0 0.00 0.00 0.00 37 1009.5
20260505025942 69 67 9.0 15.0 0.00 0.00 0.00 34 1009.5
20260505025643 69 72 7.0 14.0 0.00 0.00 0.00 30 1009.3
20260505025343 69 38 6.0 14.0 0.00 0.00 0.00 30 1008.9
20260505024633 70 49 6.0 10.0 0.00 0.00 0.00 30 1008.8
20260505024325 70 49 6.0 10.0 0.00 0.00 0.00 30 1008.8
20260505024026 70 56 6.0 10.0 0.00 0.00 0.00 29 1008.6
20260505023715 71 79 5.0 10.0 0.00 0.00 0.00 29 1008.6
20260505022949 71 101 3.0 12.0 0.00 0.00 0.00 29 1008.7
20260505022652 72 103 4.0 12.0 0.00 0.00 0.00 29 1008.6
20260505022352 72 104 3.0 17.0 0.00 0.00 0.00 28 1008.6
20260505022047 72 107 3.0 17.0 0.00 0.00 0.00 28 1008.7
20260505021749 72 119 3.0 17.0 0.00 0.00 0.00 28 1008.6
20260505021451 72 182 4.0 17.0 0.00 0.00 0.00 28 1008.4
20260505020719 72 182 5.0 17.0 0.00 0.00 0.00 29 1008.3
20260505020416 71 190 3.0 17.0 0.00 0.00 0.00 29 1008.2
20260505020112 71 101 1.0 5.0 0.00 0.00 0.00 29 1008.2
20260505015809 71 101 2.0 6.0 0.00 0.00 0.00 29 1008.0
20260505015506 71 101 3.0 6.0 0.00 0.00 0.00 29 1007.9
20260505015202 71 101 4.0 6.0 0.00 0.00 0.00 29 1008.0
20260505014454 71 101 5.0 10.0 0.00 0.00 0.00 29 1007.7
20260505013737 71 101 6.0 10.0 0.00 0.00 0.00 29 1007.6
20260505013433 71 101 6.0 10.0 0.00 0.00 0.00 29 1007.6
20260505012252 71 101 4.0 7.0 0.00 0.00 0.00 30 1007.6
20260505011937 71 101 3.0 7.0 0.00 0.00 0.00 30 1007.6
20260505011640 71 101 3.0 7.0 0.00 0.00 0.00 30 1007.6
20260505011334 71 101 2.0 7.0 0.00 0.00 0.00 31 1007.6
20260505011021 71 101 2.0 6.0 0.00 0.00 0.00 30 1007.6
20260505010713 72 101 3.0 6.0 0.00 0.00 0.00 30 1007.4
20260505010412 72 101 3.0 6.0 0.00 0.00 0.00 29 1007.4
20260505010103 73 101 4.0 6.0 0.00 0.00 0.00 30 1007.4
20260505005758 73 101 4.0 6.0 0.00 0.00 0.00 29 1007.4
20260505005459 73 101 3.0 6.0 0.00 0.00 0.00 28 1007.4
20260505005146 74 101 3.0 6.0 0.00 0.00 0.00 27 1007.2
20260505004422 75 101 4.0 6.0 0.00 0.00 0.00 27 1007.3
20260505004115 75 101 4.0 6.0 0.00 0.00 0.00 26 1007.3
20260505003812 75 101 3.0 5.0 0.00 0.00 0.00 25 1007.3
20260505003500 76 101 3.0 9.0 0.00 0.00 0.00 25 1007.3
20260505003150 76 101 3.0 9.0 0.00 0.00 0.00 25 1007.3
20260505002847 76 101 4.0 9.0 0.00 0.00 0.00 25 1007.3
20260505002540 76 101 5.0 9.0 0.00 0.00 0.00 25 1007.2
20260505001815 76 101 5.0 9.0 0.00 0.00 0.00 25 1007.2
20260505001504 76 101 6.0 9.0 0.00 0.00 0.00 25 1007.0
20260505001151 77 101 6.0 9.0 0.00 0.00 0.00 25 1007.0
20260505000846 77 101 6.0 9.0 0.00 0.00 0.00 25 1007.2
20260505000537 77 101 6.0 11.0 0.00 0.00 0.00 25 1007.1
20260504235825 77 103 6.0 11.0 0.00 0.00 0.00 24 1007.0
20260504235522 77 103 6.0 11.0 0.00 0.00 0.00 24 1007.0
20260504235209 77 103 7.0 11.0 0.00 0.00 0.00 24 1007.1
20260504234903 77 103 7.0 11.0 0.00 0.00 0.00 24 1007.0
20260504234551 77 104 8.0 13.0 0.00 0.00 0.00 24 1007.0
20260504234241 77 104 7.0 13.0 0.00 0.00 0.00 24 1007.0
20260504233937 77 104 7.0 13.0 0.00 0.00 0.00 25 1006.9
20260504233632 78 105 7.0 15.0 0.00 0.00 0.00 25 1006.9
20260504233320 78 104 8.0 15.0 0.00 0.00 0.00 25 1007.0
20260504233016 78 103 9.0 15.0 0.00 0.00 0.00 25 1007.0
20260504232717 78 103 9.0 15.0 0.00 0.00 0.00 24 1007.0
20260504231547 78 103 7.0 13.0 0.00 0.00 0.00 23 1006.9
20260504231245 78 103 8.0 13.0 0.00 0.00 0.00 23 1007.2
20260504230935 78 107 8.0 13.0 0.00 0.00 0.00 23 1007.2
20260504230634 78 103 7.0 13.0 0.00 0.00 0.00 23 1007.1
20260504230328 78 96 6.0 13.0 0.00 0.00 0.00 23 1007.2
20260504230027 78 78 6.0 12.0 0.00 0.00 0.00 24 1007.1
20260504225305 78 69 6.0 12.0 0.00 0.00 0.00 24 1007.3
20260504224955 79 40 5.0 11.0 0.00 0.00 0.00 24 1007.3
20260504224656 79 355 4.0 9.0 0.00 0.00 0.00 23 1007.3
20260504224356 80 320 3.0 7.0 0.00 0.00 0.00 23 1007.1
20260504224048 80 319 3.0 7.0 0.00 0.00 0.00 22 1007.3
20260504223321 82 317 0.0 5.0 0.00 0.00 0.00 18 1007.4
20260504223013 82 317 0.0 0.0 0.00 0.00 0.00 16 1007.3
20260504222716 82 317 0.0 0.0 0.00 0.00 0.00 16 1007.2
20260504222419 82 317 0.0 0.0 0.00 0.00 0.00 15 1007.1
20260504222107 82 317 1.0 4.0 0.00 0.00 0.00 15 1007.2
20260504221810 82 317 0.0 6.0 0.00 0.00 0.00 15 1007.2
20260504221511 82 317 0.0 6.0 0.00 0.00 0.00 15 1007.3
20260504221202 81 317 1.0 6.0 0.00 0.00 0.00 15 1007.3
20260504220906 82 317 3.0 7.0 0.00 0.00 0.00 15 1007.4
20260504220603 82 317 3.0 7.0 0.00 0.00 0.00 15 1007.3
20260504215839 82 317 3.0 11.0 0.00 0.00 0.00 16 1007.4
20260504215119 82 317 6.0 11.0 0.00 0.00 0.00 15 1007.6
20260504214805 82 317 6.0 11.0 0.00 0.00 0.00 16 1007.6
20260504214504 82 317 7.0 11.0 0.00 0.00 0.00 16 1007.6
20260504213733 82 305 7.0 11.0 0.00 0.00 0.00 15 1007.5
20260504213425 82 301 6.0 11.0 0.00 0.00 0.00 15 1007.6
20260504213116 82 294 6.0 11.0 0.00 0.00 0.00 14 1007.6
20260504212817 82 279 5.0 12.0 0.00 0.00 0.00 15 1007.7
20260504212515 82 279 3.0 12.0 0.00 0.00 0.00 14 1007.8
20260504211758 82 277 5.0 12.0 0.00 0.00 0.00 14 1007.9
20260504211457 82 277 6.0 12.0 0.00 0.00 0.00 14 1008.0
20260504211201 82 276 5.0 12.0 0.00 0.00 0.00 14 1008.0
20260504210449 83 275 2.0 11.0 0.00 0.00 0.00 14 1007.9
20260504210137 83 275 3.0 11.0 0.00 0.00 0.00 14 1008.0
20260504205832 83 275 5.0 11.0 0.00 0.00 0.00 14 1007.9
20260504205525 83 275 6.0 11.0 0.00 0.00 0.00 14 1008.1
20260504204347 83 284 6.0 10.0 0.00 0.00 0.00 14 1008.1
20260504204043 83 284 5.0 9.0 0.00 0.00 0.00 14 1008.2
20260504203733 83 282 4.0 9.0 0.00 0.00 0.00 14 1008.2
20260504203008 83 281 2.0 8.0 0.00 0.00 0.00 14 1008.2
20260504202257 83 281 5.0 8.0 0.00 0.00 0.00 14 1008.5
20260504201533 83 281 3.0 9.0 0.00 0.00 0.00 14 1008.5
20260504201229 83 281 3.0 9.0 0.00 0.00 0.00 14 1008.4
20260504200916 83 281 4.0 9.0 0.00 0.00 0.00 14 1008.6
20260504200602 83 281 4.0 9.0 0.00 0.00 0.00 14 1008.7
20260504195400 82 281 2.0 8.0 0.00 0.00 0.00 15 1008.8
20260504195053 82 281 2.0 7.0 0.00 0.00 0.00 15 1008.8
20260504194750 82 281 4.0 9.0 0.00 0.00 0.00 15 1008.8
20260504194437 82 281 4.0 9.0 0.00 0.00 0.00 15 1008.9
20260504194127 82 281 4.0 9.0 0.00 0.00 0.00 15 1009.0
20260504193830 82 281 4.0 9.0 0.00 0.00 0.00 16 1009.1
20260504193523 81 281 5.0 9.0 0.00 0.00 0.00 15 1009.1
20260504193218 82 281 5.0 9.0 0.00 0.00 0.00 15 1009.1
20260504192908 82 281 5.0 9.0 0.00 0.00 0.00 16 1009.1
20260504192602 82 286 5.0 9.0 0.00 0.00 0.00 16 1009.2
20260504192300 82 286 4.0 9.0 0.00 0.00 0.00 16 1009.2
20260504191958 82 290 3.0 9.0 0.00 0.00 0.00 15 1009.2
20260504191659 82 290 2.0 9.0 0.00 0.00 0.00 15 1009.3
20260504191358 82 290 3.0 9.0 0.00 0.00 0.00 15 1009.3
20260504191047 82 292 3.0 9.0 0.00 0.00 0.00 15 1009.3
20260504190750 82 292 4.0 12.0 0.00 0.00 0.00 15 1009.3
20260504190449 82 292 4.0 12.0 0.00 0.00 0.00 15 1009.3
20260504190152 82 292 5.0 12.0 0.00 0.00 0.00 15 1009.3
20260504185840 82 292 6.0 12.0 0.00 0.00 0.00 15 1009.4
20260504185536 82 292 6.0 12.0 0.00 0.00 0.00 14 1009.4
20260504185234 82 292 6.0 12.0 0.00 0.00 0.00 15 1009.4
20260504184925 82 284 6.0 10.0 0.00 0.00 0.00 15 1009.5
20260504184619 82 284 6.0 10.0 0.00 0.00 0.00 15 1009.4
20260504184315 82 283 6.0 10.0 0.00 0.00 0.00 14 1009.5
20260504184019 83 281 6.0 15.0 0.00 0.00 0.00 15 1009.6
20260504183711 83 281 7.0 15.0 0.00 0.00 0.00 15 1009.6
20260504183415 83 281 8.0 15.0 0.00 0.00 0.00 14 1009.7
20260504183100 83 280 9.0 15.0 0.00 0.00 0.00 14 1009.7
20260504182747 84 262 9.0 15.0 0.00 0.00 0.00 14 1009.7
20260504182448 84 266 9.0 15.0 0.00 0.00 0.00 14 1009.8
20260504182138 85 261 7.0 14.0 0.00 0.00 0.00 13 1009.8
20260504181828 85 264 6.0 14.0 0.00 0.00 0.00 15 1010.0
20260504181520 84 283 6.0 14.0 0.00 0.00 0.00 16 1009.8
20260504181215 84 284 6.0 14.0 0.00 0.00 0.00 16 1010.0
20260504180909 84 284 6.0 14.0 0.00 0.00 0.00 14 1010.1
20260504180605 85 292 5.0 14.0 0.00 0.00 0.00 15 1010.1
20260504180254 85 284 4.0 10.0 0.00 0.00 0.00 15 1010.2
20260504175953 84 284 5.0 10.0 0.00 0.00 0.00 16 1010.2
20260504175229 84 279 5.0 12.0 0.00 0.00 0.00 15 1010.5
20260504174921 83 277 5.0 12.0 0.00 0.00 0.00 16 1010.5
20260504174613 83 277 5.0 12.0 0.00 0.00 0.00 16 1010.7
20260504173835 83 266 4.0 14.0 0.00 0.00 0.00 16 1010.7
20260504173528 83 266 7.0 14.0 0.00 0.00 0.00 16 1010.8
20260504173227 83 265 7.0 14.0 0.00 0.00 0.00 16 1010.8
20260504172919 83 265 7.0 14.0 0.00 0.00 0.00 16 1010.9
20260504172607 83 265 4.0 14.0 0.00 0.00 0.00 16 1010.9
20260504172256 82 271 3.0 11.0 0.00 0.00 0.00 17 1011.0
20260504171958 82 268 2.0 12.0 0.00 0.00 0.00 17 1011.0
20260504171655 82 284 3.0 12.0 0.00 0.00 0.00 16 1011.1
20260504170931 82 284 5.0 12.0 0.00 0.00 0.00 16 1011.1
20260504170623 82 280 4.0 12.0 0.00 0.00 0.00 16 1011.1
20260504160401 79 281 9.0 13.0 0.00 0.00 0.00 22 1011.4
20260504150634 73 284 9.0 13.0 0.00 0.00 0.00 32 1012.0
20260504150336 72 292 9.0 12.0 0.00 0.00 0.00 32 1011.9
20260504141114 64 309 7.0 11.0 0.00 0.00 0.00 46 1012.2
20260504140809 63 316 7.0 10.0 0.00 0.00 0.00 46 1012.2
20260504140457 63 320 7.0 10.0 0.00 0.00 0.00 46 1012.4
20260504140142 63 336 7.0 10.0 0.00 0.00 0.00 46 1012.4
20260504130722 47 28 4.0 6.0 0.00 0.00 0.00 79 1012.2
20260504130410 46 28 3.0 6.0 0.00 0.00 0.00 80 1012.3
20260504120131 40 28 2.0 6.0 0.00 0.00 0.00 83 1011.7
20260504110458 39 28 2.0 4.0 0.00 0.00 0.00 78 1011.6
20260504110150 40 28 2.0 4.0 0.00 0.00 0.00 78 1011.7
20260504081806 43 28 5.0 7.0 0.00 0.00 0.00 72 1013.2
20260504081041 43 28 4.0 7.0 0.00 0.00 0.00 72 1013.3
20260504080730 43 28 4.0 6.0 0.00 0.00 0.00 72 1013.2